Terminal Aerodrome Forecast
Issued by NWS St Louis, MO

Home | Current Version | Previous Version | Text Only | Print | Product List | Glossary On
Versions: 1 2 3 4 5 6 7 8 9 10 11 12 13 14 15 16 17 18 19 20 21 22 23 24 25 26
000
FTUS43 KLSX 170308 AAA
TAFSTL
TAF AMD
KSTL 170308Z 1703/1806 19006KT P6SM BKN250
     FM170900 19006KT P6SM OVC110
     FM171300 19006KT P6SM -RA OVC050
     FM171700 19008KT P6SM VCSH OVC015
     FM180200 20005KT P6SM BKN025=

USA.gov is the U.S. government's official web portal to all federal, state and local government web resources and services.